Time,TemperatureF,DewpointF,PressureIn,WindDirection,WindDirectionDegrees,WindSpeedMPH,WindSpeedGustMPH,Humidity,HourlyPrecipIn,Conditions,Clouds,dailyrainin,SolarRadiationWatts/m^2,SoftwareType,DateUTC
2013-02-11 00:00:00,29.5,29.5,29.03,West,272,3.0,11.0,100,0.00,,OVC200,0.00,0.00,VWS V14.01,2013-02-11 06:00:00,
2013-02-11 00:05:00,29.7,29.7,29.04,SSE,167,5.0,6.0,100,0.00,,OVC200,0.00,0.00,VWS V14.01,2013-02-11 06:05:00,
2013-02-11 00:10:00,29.7,29.7,29.04,SSE,166,3.0,6.0,100,0.00,,OVC200,0.00,0.00,VWS V14.01,2013-02-11 06:10:00,
2013-02-11 00:15:00,29.7,29.7,29.04,South,172,0.0,9.0,100,0.00,,OVC200,0.00,0.00,VWS V14.01,2013-02-11 06:15:00,
2013-02-11 00:20:00,29.7,29.7,29.04,SSE,167,1.0,9.0,100,0.00,,OVC200,0.00,0.00,VWS V14.01,2013-02-11 06:20:00,
2013-02-11 00:25:00,29.8,29.8,29.04,South,183,2.0,9.0,100,0.00,,OVC200,0.00,0.00,VWS V14.01,2013-02-11 06:25:00,
2013-02-11 00:30:00,29.8,29.8,29.04,SSE,161,4.0,10.0,100,0.00,,OVC200,0.00,0.00,VWS V14.01,2013-02-11 06:30:00,
2013-02-11 00:35:00,29.8,29.8,29.06,SE,142,2.0,5.0,100,0.00,,OVC200,0.00,0.00,VWS V14.01,2013-02-11 06:35:00,
2013-02-11 00:40:00,29.7,29.7,29.06,SSE,148,6.0,11.0,100,0.00,,OVC200,0.00,0.00,VWS V14.01,2013-02-11 06:40:00,
2013-02-11 00:45:00,29.7,29.7,29.06,SSE,166,3.0,11.0,100,0.00,,OVC200,0.00,0.00,VWS V14.01,2013-02-11 06:45:00,
2013-02-11 00:50:00,29.7,29.7,29.06,SSE,153,5.0,11.0,100,0.00,,OVC200,0.00,0.00,VWS V14.01,2013-02-11 06:50:00,
2013-02-11 00:55:00,29.5,29.5,29.06,SSE,163,5.0,12.0,100,0.00,,OVC200,0.00,0.00,VWS V14.01,2013-02-11 06:55:00,
2013-02-11 01:00:00,29.4,29.4,29.06,South,172,3.0,12.0,100,0.00,,OVC200,0.00,0.00,VWS V14.01,2013-02-11 07:00:00,
2013-02-11 01:05:00,29.4,29.4,29.07,SSE,156,13.0,13.0,100,0.00,,OVC200,0.00,0.00,VWS V14.01,2013-02-11 07:05:00,
2013-02-11 01:10:00,29.3,29.3,29.07,South,171,2.0,13.0,100,0.00,,OVC200,0.00,0.00,VWS V14.01,2013-02-11 07:10:00,
2013-02-11 01:15:00,29.3,29.3,29.07,SSE,161,6.0,13.0,100,0.00,,OVC200,0.00,0.00,VWS V14.01,2013-02-11 07:15:00,
2013-02-11 01:20:00,29.1,29.1,29.08,SSE,150,6.0,13.0,100,0.00,,OVC200,0.00,0.00,VWS V14.01,2013-02-11 07:20:00,
2013-02-11 01:25:00,29.1,29.1,29.08,West,263,5.0,13.0,100,0.00,,OVC200,0.00,0.00,VWS V14.01,2013-02-11 07:25:00,
2013-02-11 01:30:00,29.1,29.1,29.08,SE,132,3.0,13.0,100,0.00,,OVC200,0.00,0.00,VWS V14.01,2013-02-11 07:30:00,
2013-02-11 01:35:00,29.1,29.1,29.09,SSE,153,5.0,6.0,100,0.00,,OVC200,0.00,0.00,VWS V14.01,2013-02-11 07:35:00,
2013-02-11 01:40:00,29.0,29.0,29.09,SSE,165,8.0,10.0,100,0.00,,OVC200,0.00,0.00,VWS V14.01,2013-02-11 07:40:00,
2013-02-11 01:45:00,29.1,29.1,29.09,SSE,163,4.0,11.0,100,0.00,,OVC200,0.00,0.00,VWS V14.01,2013-02-11 07:45:00,
2013-02-11 01:50:00,29.1,29.1,29.10,SE,130,5.0,14.0,100,0.00,,OVC200,0.00,0.00,VWS V14.01,2013-02-11 07:50:00,
2013-02-11 01:52:00,29.1,29.1,29.10,South,184,2.0,14.0,100,0.00,,OVC200,0.00,0.00,VWS V14.01,2013-02-11 07:52:00,
2013-02-11 01:57:00,29.1,29.1,29.10,SSE,158,7.0,17.0,100,0.00,,OVC200,0.00,0.00,VWS V14.01,2013-02-11 07:57:00,
2013-02-11 02:00:00,29.1,29.1,29.11,SE,145,8.0,17.0,100,0.00,,OVC075,0.00,0.00,VWS V15.00,2013-02-11 08:00:00,
2013-02-11 02:02:00,29.1,29.1,29.10,South,175,5.0,17.0,100,0.00,,OVC200,0.00,0.00,VWS V14.01,2013-02-11 08:02:00,
2013-02-11 02:07:00,29.1,28.6,29.11,SSW,193,12.0,14.0,98,0.00,,OVC200,0.00,0.00,VWS V14.01,2013-02-11 08:07:00,
2013-02-11 02:12:00,29.1,27.9,29.11,SSW,206,1.0,16.0,95,0.00,,OVC200,0.00,0.00,VWS V14.01,2013-02-11 08:12:00,
2013-02-11 02:17:00,29.1,27.6,29.11,SE,131,9.0,16.0,94,0.00,,OVC200,0.00,0.00,VWS V14.01,2013-02-11 08:17:00,
2013-02-11 02:22:00,29.1,27.3,29.12,SSE,155,6.0,16.0,93,0.00,,OVC200,0.00,0.00,VWS V14.01,2013-02-11 08:22:00,
2013-02-11 02:27:00,29.3,27.5,29.12,SSE,162,14.0,16.0,93,0.00,,OVC200,0.00,0.00,VWS V14.01,2013-02-11 08:27:00,
2013-02-11 02:30:00,29.1,27.1,29.14,SSE,157,6.0,17.0,92,0.00,,OVC075,0.00,0.00,VWS V15.00,2013-02-11 08:30:00,
2013-02-11 02:32:00,29.1,27.1,29.12,SSE,163,10.0,17.0,92,0.00,,OVC200,0.00,0.00,VWS V14.01,2013-02-11 08:32:00,
2013-02-11 02:37:00,29.1,27.1,29.14,SSE,153,6.0,14.0,92,0.00,,OVC200,0.00,0.00,VWS V14.01,2013-02-11 08:37:00,
2013-02-11 02:42:00,29.1,26.8,29.14,SE,134,4.0,14.0,91,0.00,,OVC200,0.00,0.00,VWS V14.01,2013-02-11 08:42:00,
2013-02-11 02:47:00,29.1,26.8,29.14,NNW,328,5.0,14.0,91,0.00,,OVC200,0.00,0.00,VWS V14.01,2013-02-11 08:47:00,
2013-02-11 02:52:00,29.1,26.5,29.14,SSE,156,6.0,14.0,90,0.00,,OVC200,0.00,0.00,VWS V14.01,2013-02-11 08:52:00,
2013-02-11 02:57:00,29.1,26.5,29.14,South,186,4.0,14.0,90,0.00,,OVC200,0.00,0.00,VWS V14.01,2013-02-11 08:57:00,
2013-02-11 03:00:00,29.1,26.3,29.15,SSE,158,12.0,16.0,89,0.00,,OVC075,0.00,0.00,VWS V15.00,2013-02-11 09:00:00,
2013-02-11 03:02:00,29.1,26.5,29.14,SSE,153,4.0,14.0,90,0.00,,OVC200,0.00,0.00,VWS V14.01,2013-02-11 09:02:00,
2013-02-11 03:07:00,29.1,26.3,29.15,SE,137,8.0,16.0,89,0.00,,OVC200,0.00,0.00,VWS V14.01,2013-02-11 09:07:00,
2013-02-11 03:12:00,29.1,26.3,29.15,South,178,3.0,16.0,89,0.00,,OVC200,0.00,0.00,VWS V14.01,2013-02-11 09:12:00,
2013-02-11 03:17:00,29.0,26.2,29.15,SSE,152,7.0,16.0,89,0.00,,OVC200,0.00,0.00,VWS V14.01,2013-02-11 09:17:00,
2013-02-11 03:22:00,29.0,26.2,29.17,SSE,159,11.0,16.0,89,0.00,,OVC200,0.00,0.00,VWS V14.01,2013-02-11 09:22:00,
2013-02-11 03:27:00,29.0,25.9,29.17,SSW,197,3.0,16.0,88,0.00,,OVC200,0.00,0.00,VWS V14.01,2013-02-11 09:27:00,
2013-02-11 03:30:00,28.8,26.0,29.17,SSE,159,5.0,16.0,89,0.00,,OVC075,0.00,0.00,VWS V15.00,2013-02-11 09:30:00,
2013-02-11 03:32:00,28.8,25.7,29.17,South,177,3.0,16.0,88,0.00,,OVC200,0.00,0.00,VWS V14.01,2013-02-11 09:32:00,
2013-02-11 03:37:00,28.7,25.6,29.17,South,171,5.0,14.0,88,0.00,,OVC200,0.00,0.00,VWS V14.01,2013-02-11 09:37:00,
2013-02-11 03:42:00,28.7,25.6,29.17,South,187,8.0,14.0,88,0.00,,OVC200,0.00,0.00,VWS V14.01,2013-02-11 09:42:00,
2013-02-11 03:47:00,28.5,25.4,29.17,SE,136,7.0,14.0,88,0.00,,OVC200,0.00,0.00,VWS V14.01,2013-02-11 09:47:00,
2013-02-11 03:52:00,28.5,25.4,29.18,SSE,157,11.0,14.0,88,0.00,,OVC200,0.00,0.00,VWS V14.01,2013-02-11 09:52:00,
2013-02-11 03:57:00,28.5,25.4,29.18,SSE,157,3.0,14.0,88,0.00,,OVC200,0.00,0.00,VWS V14.01,2013-02-11 09:57:00,
2013-02-11 04:00:00,28.5,26.0,29.20,SSE,153,3.0,14.0,90,0.00,,OVC075,0.00,0.00,VWS V15.00,2013-02-11 10:00:00,
2013-02-11 04:02:00,28.5,25.4,29.18,South,178,12.0,14.0,88,0.00,,OVC200,0.00,0.00,VWS V14.01,2013-02-11 10:02:00,
2013-02-11 04:07:00,28.5,25.1,29.20,South,181,7.0,17.0,87,0.00,,OVC200,0.00,0.00,VWS V14.01,2013-02-11 10:07:00,
2013-02-11 04:12:00,28.5,25.1,29.20,South,174,3.0,17.0,87,0.00,,OVC200,0.00,0.00,VWS V14.01,2013-02-11 10:12:00,
2013-02-11 04:17:00,28.5,24.9,29.20,SSE,164,3.0,17.0,86,0.00,,OVC200,0.00,0.00,VWS V14.01,2013-02-11 10:17:00,
2013-02-11 04:22:00,28.5,24.9,29.21,South,169,2.0,17.0,86,0.00,,OVC200,0.00,0.00,VWS V14.01,2013-02-11 10:22:00,
2013-02-11 04:27:00,28.4,24.8,29.21,South,178,3.0,17.0,86,0.00,,OVC200,0.00,0.00,VWS V14.01,2013-02-11 10:27:00,
2013-02-11 04:30:00,28.4,24.5,29.22,SSE,161,2.0,17.0,85,0.00,,OVC075,0.00,0.00,VWS V15.00,2013-02-11 10:30:00,
2013-02-11 04:32:00,28.4,24.8,29.21,SSE,149,7.0,17.0,86,0.00,,OVC200,0.00,0.00,VWS V14.01,2013-02-11 10:32:00,
2013-02-11 04:37:00,28.4,24.5,29.22,SE,139,10.0,11.0,85,0.00,,OVC200,0.00,0.00,VWS V14.01,2013-02-11 10:37:00,
2013-02-11 04:42:00,28.2,24.3,29.22,South,176,6.0,14.0,85,0.00,,OVC200,0.00,0.00,VWS V14.01,2013-02-11 10:42:00,
2013-02-11 04:47:00,28.2,24.3,29.22,South,175,6.0,14.0,85,0.00,,OVC200,0.00,0.00,VWS V14.01,2013-02-11 10:47:00,
2013-02-11 04:52:00,28.1,24.2,29.23,SSE,159,6.0,17.0,85,0.00,,OVC200,0.00,0.00,VWS V14.01,2013-02-11 10:52:00,
2013-02-11 04:57:00,27.9,24.0,29.23,SSE,165,6.0,17.0,85,0.00,,OVC200,0.00,0.00,VWS V14.01,2013-02-11 10:57:00,
2013-02-11 05:00:00,27.9,23.7,29.24,South,170,15.0,22.0,84,0.00,,OVC075,0.00,0.00,VWS V15.00,2013-02-11 11:00:00,
2013-02-11 05:02:00,27.9,23.7,29.23,SSW,213,4.0,22.0,84,0.00,,OVC200,0.00,0.00,VWS V14.01,2013-02-11 11:02:00,
2013-02-11 05:07:00,27.9,23.7,29.24,SSE,162,7.0,16.0,84,0.00,,OVC200,0.00,0.00,VWS V14.01,2013-02-11 11:07:00,
2013-02-11 05:12:00,27.8,23.6,29.24,SE,142,7.0,16.0,84,0.00,,OVC200,0.00,0.00,VWS V14.01,2013-02-11 11:12:00,
2013-02-11 05:17:00,27.8,23.6,29.24,South,169,5.0,16.0,84,0.00,,OVC200,0.00,0.00,VWS V14.01,2013-02-11 11:17:00,
2013-02-11 05:22:00,27.6,23.1,29.26,SSE,163,9.0,16.0,83,0.00,,OVC200,0.00,0.00,VWS V14.01,2013-02-11 11:22:00,
2013-02-11 05:27:00,27.5,23.0,29.26,SSE,158,12.0,16.0,83,0.00,,OVC200,0.00,0.00,VWS V14.01,2013-02-11 11:27:00,
2013-02-11 05:30:00,27.3,22.8,29.27,SE,144,7.0,16.0,83,0.00,,OVC075,0.00,0.00,VWS V15.00,2013-02-11 11:30:00,
2013-02-11 05:32:00,27.3,22.8,29.26,SSE,150,9.0,16.0,83,0.00,,OVC200,0.00,0.00,VWS V14.01,2013-02-11 11:32:00,
2013-02-11 05:37:00,27.3,22.8,29.27,SSE,152,7.0,12.0,83,0.00,,OVC200,0.00,0.00,VWS V14.01,2013-02-11 11:37:00,
2013-02-11 05:42:00,27.2,22.4,29.27,South,170,3.0,12.0,82,0.00,,OVC200,0.00,0.00,VWS V14.01,2013-02-11 11:42:00,
2013-02-11 05:47:00,27.2,22.4,29.27,SSE,148,7.0,14.0,82,0.00,,OVC200,0.00,0.00,VWS V14.01,2013-02-11 11:47:00,
2013-02-11 05:52:00,27.0,22.2,29.28,SE,145,7.0,14.0,82,0.00,,OVC200,0.00,0.00,VWS V14.01,2013-02-11 11:52:00,
2013-02-11 05:57:00,26.9,22.4,29.28,West,278,3.0,14.0,83,0.00,,OVC200,0.00,0.00,VWS V14.01,2013-02-11 11:57:00,
2013-02-11 06:00:00,26.6,22.1,29.30,SSE,165,9.0,16.0,83,0.00,,OVC075,0.00,0.00,VWS V15.00,2013-02-11 12:00:00,
2013-02-11 06:02:00,26.7,22.2,29.28,SSE,150,9.0,14.0,83,0.00,,OVC200,0.00,0.00,VWS V14.01,2013-02-11 12:02:00,
2013-02-11 06:07:00,26.6,22.1,29.30,SSE,165,5.0,15.0,83,0.00,,OVC200,0.00,0.00,VWS V14.01,2013-02-11 12:07:00,
2013-02-11 06:12:00,26.4,22.0,29.30,South,171,3.0,15.0,83,0.00,,OVC200,0.00,0.00,VWS V14.01,2013-02-11 12:12:00,
2013-02-11 06:17:00,26.3,21.9,29.30,SE,138,6.0,15.0,83,0.00,,OVC200,0.00,0.00,VWS V14.01,2013-02-11 12:17:00,
2013-02-11 06:22:00,26.3,21.6,29.31,SSE,167,5.0,15.0,82,0.00,,OVC200,0.00,0.00,VWS V14.01,2013-02-11 12:22:00,
2013-02-11 06:27:00,26.3,21.3,29.31,South,174,11.0,15.0,81,0.00,,OVC200,0.00,0.00,VWS V14.01,2013-02-11 12:27:00,
2013-02-11 06:30:00,26.1,20.8,29.32,SSE,164,4.0,15.0,80,0.00,,OVC075,0.00,0.00,VWS V15.00,2013-02-11 12:30:00,
2013-02-11 06:32:00,26.3,21.0,29.31,SSE,151,4.0,15.0,80,0.00,,OVC200,0.00,0.00,VWS V14.01,2013-02-11 12:32:00,
2013-02-11 06:37:00,26.1,20.8,29.32,South,173,5.0,12.0,80,0.00,,OVC200,0.00,0.00,VWS V14.01,2013-02-11 12:37:00,
2013-02-11 06:42:00,26.0,21.0,29.32,South,190,10.0,13.0,81,0.00,,OVC200,0.00,0.00,VWS V14.01,2013-02-11 12:42:00,
2013-02-11 06:47:00,25.7,21.0,29.32,South,183,4.0,15.0,82,0.00,,OVC200,0.00,0.00,VWS V14.01,2013-02-11 12:47:00,
2013-02-11 06:52:00,25.6,21.2,29.34,South,176,9.0,15.0,83,0.00,,OVC200,0.00,0.00,VWS V14.01,2013-02-11 12:52:00,
2013-02-11 06:53:00,25.6,21.2,29.34,South,171,5.0,15.0,83,0.00,,OVC200,0.00,0.00,VWS V14.01,2013-02-11 12:53:00,
2013-02-11 06:58:00,25.6,20.9,29.34,SSE,148,3.0,15.0,82,0.00,,OVC200,0.00,0.00,VWS V14.01,2013-02-11 12:58:00,
2013-02-11 07:00:00,25.6,20.9,29.35,South,175,3.0,15.0,82,0.00,,OVC075,0.00,0.00,VWS V15.00,2013-02-11 13:00:00,
2013-02-11 07:03:00,25.6,20.9,29.35,SSE,167,4.0,15.0,82,0.00,,OVC200,0.00,0.00,VWS V14.01,2013-02-11 13:03:00,
2013-02-11 07:08:00,25.6,20.6,29.35,SSE,163,5.0,10.0,81,0.00,,OVC200,0.00,0.00,VWS V14.01,2013-02-11 13:08:00,
2013-02-11 07:13:00,25.6,20.6,29.35,SSE,154,4.0,13.0,81,0.00,,OVC200,0.00,0.00,VWS V14.01,2013-02-11 13:13:00,
2013-02-11 07:18:00,25.4,20.1,29.36,SSE,153,5.0,13.0,80,0.00,,OVC200,0.00,0.00,VWS V14.01,2013-02-11 13:18:00,
2013-02-11 07:23:00,25.4,20.4,29.36,SE,145,7.0,13.0,81,0.00,,OVC200,0.00,0.00,VWS V14.01,2013-02-11 13:23:00,
2013-02-11 07:28:00,25.1,20.4,29.36,South,174,7.0,13.0,82,0.00,,OVC200,0.00,0.00,VWS V14.01,2013-02-11 13:28:00,
2013-02-11 07:30:00,24.8,20.7,29.37,SSE,159,9.0,14.0,84,0.00,,OVC075,0.00,5.00,VWS V15.00,2013-02-11 13:30:00,
2013-02-11 07:33:00,24.8,20.4,29.37,SSE,165,6.0,13.0,83,0.00,,OVC200,0.00,5.00,VWS V14.01,2013-02-11 13:33:00,
2013-02-11 07:38:00,24.7,20.6,29.37,SSE,153,7.0,12.0,84,0.00,,OVC200,0.00,5.00,VWS V14.01,2013-02-11 13:38:00,
2013-02-11 07:43:00,24.7,20.6,29.37,SSE,165,5.0,14.0,84,0.00,,OVC200,0.00,5.00,VWS V14.01,2013-02-11 13:43:00,
2013-02-11 07:48:00,24.5,20.4,29.39,SSE,155,7.0,14.0,84,0.00,,OVC200,0.00,5.00,VWS V14.01,2013-02-11 13:48:00,
2013-02-11 07:53:00,24.5,20.4,29.39,South,176,6.0,14.0,84,0.00,,OVC200,0.00,5.00,VWS V14.01,2013-02-11 13:53:00,
2013-02-11 07:58:00,24.5,20.4,29.39,South,171,4.0,14.0,84,0.00,,OVC200,0.00,7.00,VWS V14.01,2013-02-11 13:58:00,
2013-02-11 08:00:00,24.4,20.0,29.39,ESE,113,9.0,14.0,83,0.00,,OVC075,0.00,7.00,VWS V15.00,2013-02-11 14:00:00,
2013-02-11 08:03:00,24.4,20.0,29.39,South,175,11.0,14.0,83,0.00,,OVC200,0.00,7.00,VWS V14.01,2013-02-11 14:03:00,
2013-02-11 08:08:00,24.5,20.1,29.39,SSW,213,5.0,14.0,83,0.00,,OVC200,0.00,9.00,VWS V14.01,2013-02-11 14:08:00,
2013-02-11 08:13:00,24.5,19.8,29.39,ESE,104,3.0,14.0,82,0.00,,OVC200,0.00,11.00,VWS V14.01,2013-02-11 14:13:00,
2013-02-11 08:18:00,24.7,19.7,29.41,South,177,7.0,14.0,81,0.00,,OVC200,0.00,14.00,VWS V14.01,2013-02-11 14:18:00,
2013-02-11 08:23:00,24.7,19.4,29.41,SSW,198,6.0,14.0,80,0.00,,OVC200,0.00,26.00,VWS V14.01,2013-02-11 14:23:00,
2013-02-11 08:28:00,24.8,19.2,29.41,SE,144,5.0,14.0,79,0.00,,OVC200,0.00,42.00,VWS V14.01,2013-02-11 14:28:00,
2013-02-11 08:30:00,25.0,19.1,29.41,SSE,159,10.0,17.0,78,0.00,,OVC075,0.00,40.00,VWS V15.00,2013-02-11 14:30:00,
2013-02-11 08:33:00,25.0,19.4,29.41,SSE,168,8.0,17.0,79,0.00,,OVC200,0.00,37.00,VWS V14.01,2013-02-11 14:33:00,
2013-02-11 08:38:00,25.1,18.9,29.41,SSE,157,4.0,15.0,77,0.00,,OVC200,0.00,37.00,VWS V14.01,2013-02-11 14:38:00,
2013-02-11 08:43:00,25.1,18.9,29.41,South,173,7.0,15.0,77,0.00,,OVC200,0.00,62.00,VWS V14.01,2013-02-11 14:43:00,
2013-02-11 08:48:00,25.1,18.9,29.41,SSE,155,12.0,18.0,77,0.00,,OVC200,0.00,69.00,VWS V14.01,2013-02-11 14:48:00,
2013-02-11 08:53:00,25.1,18.9,29.42,South,184,9.0,18.0,77,0.00,,OVC200,0.00,70.00,VWS V14.01,2013-02-11 14:53:00,
2013-02-11 08:58:00,25.0,18.8,29.42,SSE,157,6.0,18.0,77,0.00,,OVC200,0.00,83.00,VWS V14.01,2013-02-11 14:58:00,
2013-02-11 09:00:00,25.0,18.8,29.44,South,169,8.0,18.0,77,0.00,,OVC075,0.00,86.00,VWS V15.00,2013-02-11 15:00:00,
2013-02-11 09:03:00,25.0,18.8,29.42,SSE,153,6.0,18.0,77,0.00,,OVC200,0.00,79.00,VWS V14.01,2013-02-11 15:03:00,
2013-02-11 09:08:00,25.0,18.8,29.44,SSE,148,11.0,14.0,77,0.00,,OVC200,0.00,102.00,VWS V14.01,2013-02-11 15:08:00,
2013-02-11 09:13:00,25.0,18.8,29.44,South,180,6.0,14.0,77,0.00,,OVC200,0.00,81.00,VWS V14.01,2013-02-11 15:13:00,
2013-02-11 09:18:00,25.1,19.2,29.44,SSE,163,8.0,17.0,78,0.00,,OVC200,0.00,90.00,VWS V14.01,2013-02-11 15:18:00,
2013-02-11 09:23:00,25.3,19.1,29.44,South,188,9.0,17.0,77,0.00,,OVC200,0.00,97.00,VWS V14.01,2013-02-11 15:23:00,
2013-02-11 09:28:00,25.3,18.8,29.44,SE,136,11.0,18.0,76,0.00,,OVC200,0.00,100.00,VWS V14.01,2013-02-11 15:28:00,
2013-02-11 09:30:00,25.4,18.9,29.46,SSE,149,10.0,18.0,76,0.00,,OVC075,0.00,98.00,VWS V15.00,2013-02-11 15:30:00,
2013-02-11 09:33:00,25.4,18.9,29.44,SSE,159,12.0,18.0,76,0.00,,OVC200,0.00,97.00,VWS V14.01,2013-02-11 15:33:00,
2013-02-11 09:38:00,25.4,18.9,29.46,SSE,147,6.0,15.0,76,0.00,,OVC200,0.00,125.00,VWS V14.01,2013-02-11 15:38:00,
2013-02-11 09:43:00,25.6,19.1,29.46,South,183,13.0,15.0,76,0.00,,OVC200,0.00,90.00,VWS V14.01,2013-02-11 15:43:00,
2013-02-11 09:48:00,25.4,18.9,29.46,South,174,10.0,15.0,76,0.00,,OVC200,0.00,100.00,VWS V14.01,2013-02-11 15:48:00,
2013-02-11 09:53:00,25.4,18.9,29.46,SSE,147,11.0,18.0,76,0.00,,OVC200,0.00,137.00,VWS V14.01,2013-02-11 15:53:00,
2013-02-11 09:58:00,25.6,19.1,29.46,South,185,10.0,18.0,76,0.00,,OVC200,0.00,139.00,VWS V14.01,2013-02-11 15:58:00,
2013-02-11 10:00:00,25.6,19.1,29.48,SE,144,14.0,18.0,76,0.00,,OVC075,0.00,156.00,VWS V15.00,2013-02-11 16:00:00,
2013-02-11 10:03:00,25.6,19.1,29.46,SSE,148,11.0,18.0,76,0.00,,OVC200,0.00,144.00,VWS V14.01,2013-02-11 16:03:00,
2013-02-11 10:08:00,25.6,19.1,29.48,SSE,148,10.0,14.0,76,0.00,,OVC200,0.00,162.00,VWS V14.01,2013-02-11 16:08:00,
2013-02-11 10:13:00,25.6,19.1,29.48,SSE,155,6.0,17.0,76,0.00,,OVC200,0.00,213.00,VWS V14.01,2013-02-11 16:13:00,
2013-02-11 10:18:00,25.6,19.1,29.48,SE,139,9.0,17.0,76,0.00,,OVC200,0.00,172.00,VWS V14.01,2013-02-11 16:18:00,
2013-02-11 10:23:00,25.6,18.8,29.48,SSW,192,10.0,17.0,75,0.00,,OVC200,0.00,163.00,VWS V14.01,2013-02-11 16:23:00,
2013-02-11 10:28:00,25.4,18.6,29.48,SSW,199,10.0,20.0,75,0.00,,OVC200,0.00,162.00,VWS V14.01,2013-02-11 16:28:00,
2013-02-11 10:30:00,25.4,18.6,29.49,SSE,161,11.0,20.0,75,0.00,,OVC075,0.00,169.00,VWS V15.00,2013-02-11 16:30:00,
2013-02-11 10:33:00,25.4,18.6,29.48,SSE,151,12.0,20.0,75,0.00,,OVC200,0.00,167.00,VWS V14.01,2013-02-11 16:33:00,
2013-02-11 10:38:00,25.6,18.8,29.49,South,186,5.0,13.0,75,0.00,,OVC200,0.00,174.00,VWS V14.01,2013-02-11 16:38:00,
2013-02-11 10:43:00,25.6,18.8,29.49,SE,130,17.0,19.0,75,0.00,,OVC200,0.00,223.00,VWS V14.01,2013-02-11 16:43:00,
2013-02-11 10:48:00,25.3,18.2,29.49,SSE,147,10.0,19.0,74,0.00,,OVC200,0.00,248.00,VWS V14.01,2013-02-11 16:48:00,
2013-02-11 10:53:00,25.4,18.3,29.50,SSE,160,6.0,22.0,74,0.00,,OVC200,0.00,236.00,VWS V14.01,2013-02-11 16:53:00,
2013-02-11 10:58:00,25.4,18.0,29.50,SE,137,10.0,22.0,73,0.00,,OVC200,0.00,258.00,VWS V14.01,2013-02-11 16:58:00,
2013-02-11 11:00:00,25.7,18.3,29.51,SSE,158,11.0,22.0,73,0.00,,OVC075,0.00,262.00,VWS V15.00,2013-02-11 17:00:00,
2013-02-11 11:03:00,25.6,18.2,29.50,SSE,147,7.0,22.0,73,0.00,,OVC200,0.00,262.00,VWS V14.01,2013-02-11 17:03:00,
2013-02-11 11:08:00,25.6,17.8,29.51,SSE,153,12.0,19.0,72,0.00,,OVC200,0.00,244.00,VWS V14.01,2013-02-11 17:08:00,
2013-02-11 11:13:00,25.4,17.6,29.51,South,180,13.0,21.0,72,0.00,,OVC200,0.00,267.00,VWS V14.01,2013-02-11 17:13:00,
2013-02-11 11:18:00,25.6,17.8,29.51,WSW,246,5.0,21.0,72,0.00,,OVC200,0.00,251.00,VWS V14.01,2013-02-11 17:18:00,
2013-02-11 11:23:00,25.6,17.8,29.52,East,98,15.0,23.0,72,0.00,,OVC200,0.00,302.00,VWS V14.01,2013-02-11 17:23:00,
2013-02-11 11:28:00,25.4,17.3,29.52,SSW,198,4.0,23.0,71,0.00,,OVC200,0.00,336.00,VWS V14.01,2013-02-11 17:28:00,
2013-02-11 11:30:00,25.4,17.3,29.52,SSE,154,7.0,23.0,71,0.00,,OVC075,0.00,230.00,VWS V15.00,2013-02-11 17:30:00,
2013-02-11 11:33:00,25.4,17.6,29.52,SE,134,11.0,23.0,72,0.00,,OVC200,0.00,265.00,VWS V14.01,2013-02-11 17:33:00,
2013-02-11 11:38:00,25.4,17.6,29.52,SSE,153,3.0,14.0,72,0.00,,OVC200,0.00,243.00,VWS V14.01,2013-02-11 17:38:00,
2013-02-11 11:43:00,25.6,17.8,29.52,South,169,10.0,14.0,72,0.00,,OVC200,0.00,288.00,VWS V14.01,2013-02-11 17:43:00,
2013-02-11 11:48:00,25.7,17.9,29.52,South,182,10.0,20.0,72,0.00,,OVC200,0.00,397.00,VWS V14.01,2013-02-11 17:48:00,
2013-02-11 11:53:00,25.7,17.6,29.53,SSW,192,9.0,20.0,71,0.00,,OVC200,0.00,287.00,VWS V14.01,2013-02-11 17:53:00,
2013-02-11 11:58:00,25.7,17.6,29.53,South,169,11.0,20.0,71,0.00,,OVC200,0.00,281.00,VWS V14.01,2013-02-11 17:58:00,
2013-02-11 12:00:00,25.6,17.5,29.54,South,180,13.0,20.0,71,0.00,,OVC075,0.00,269.00,VWS V15.00,2013-02-11 18:00:00,
2013-02-11 12:03:00,25.6,17.5,29.53,South,182,8.0,20.0,71,0.00,,OVC200,0.00,246.00,VWS V14.01,2013-02-11 18:03:00,
2013-02-11 12:08:00,25.6,17.5,29.54,SSW,192,12.0,16.0,71,0.00,,OVC200,0.00,279.00,VWS V14.01,2013-02-11 18:08:00,
2013-02-11 12:13:00,25.6,17.5,29.54,ESE,123,13.0,25.0,71,0.00,,OVC200,0.00,290.00,VWS V14.01,2013-02-11 18:13:00,
2013-02-11 12:18:00,25.6,17.5,29.54,SSE,159,11.0,25.0,71,0.00,,OVC200,0.00,255.00,VWS V14.01,2013-02-11 18:18:00,
2013-02-11 12:23:00,25.6,17.5,29.55,SE,131,5.0,25.0,71,0.00,,OVC200,0.00,251.00,VWS V14.01,2013-02-11 18:23:00,
2013-02-11 12:28:00,25.6,17.5,29.55,SSE,153,14.0,25.0,71,0.00,,OVC200,0.00,250.00,VWS V14.01,2013-02-11 18:28:00,
2013-02-11 12:30:00,25.4,17.3,29.56,South,178,4.0,25.0,71,0.00,,OVC075,0.00,183.00,VWS V15.00,2013-02-11 18:30:00,
2013-02-11 12:33:00,25.4,17.3,29.55,SSE,147,10.0,25.0,71,0.00,,OVC200,0.00,179.00,VWS V14.01,2013-02-11 18:33:00,
2013-02-11 12:38:00,25.6,17.8,29.56,SSE,148,11.0,15.0,72,0.00,,OVC200,0.00,221.00,VWS V14.01,2013-02-11 18:38:00,
2013-02-11 12:43:00,25.4,17.3,29.56,SE,138,7.0,21.0,71,0.00,,OVC200,0.00,265.00,VWS V14.01,2013-02-11 18:43:00,
2013-02-11 12:48:00,25.7,17.9,29.56,SSE,159,9.0,21.0,72,0.00,,OVC200,0.00,272.00,VWS V14.01,2013-02-11 18:48:00,
2013-02-11 12:53:00,25.7,17.9,29.56,SSE,166,9.0,21.0,72,0.00,,OVC200,0.00,306.00,VWS V14.01,2013-02-11 18:53:00,
2013-02-11 12:58:00,25.7,17.9,29.56,South,173,11.0,21.0,72,0.00,,OVC200,0.00,318.00,VWS V14.01,2013-02-11 18:58:00,
2013-02-11 13:00:00,25.6,17.5,29.56,SSE,158,14.0,21.0,71,0.00,,OVC075,0.00,309.00,VWS V15.00,2013-02-11 19:00:00,
2013-02-11 13:03:00,25.6,17.5,29.56,South,182,7.0,21.0,71,0.00,,OVC200,0.00,322.00,VWS V14.01,2013-02-11 19:03:00,
2013-02-11 13:08:00,25.6,17.8,29.56,SSE,154,20.0,20.0,72,0.00,,OVC200,0.00,274.00,VWS V14.01,2013-02-11 19:08:00,
2013-02-11 13:13:00,25.4,17.3,29.56,South,184,14.0,20.0,71,0.00,,OVC200,0.00,265.00,VWS V14.01,2013-02-11 19:13:00,
2013-02-11 13:18:00,25.3,17.2,29.56,SSE,153,9.0,22.0,71,0.00,,OVC200,0.00,253.00,VWS V14.01,2013-02-11 19:18:00,
2013-02-11 13:23:00,25.3,17.2,29.57,SW,217,16.0,22.0,71,0.00,,OVC200,0.00,244.00,VWS V14.01,2013-02-11 19:23:00,
2013-02-11 13:28:00,25.3,17.2,29.57,South,171,6.0,22.0,71,0.00,,OVC200,0.00,285.00,VWS V14.01,2013-02-11 19:28:00,
2013-02-11 13:30:00,25.3,17.5,29.57,SE,138,13.0,22.0,72,0.00,,OVC075,0.00,246.00,VWS V15.00,2013-02-11 19:30:00,
2013-02-11 13:33:00,25.3,17.5,29.57,SSE,168,8.0,22.0,72,0.00,,OVC200,0.00,227.00,VWS V14.01,2013-02-11 19:33:00,
2013-02-11 13:38:00,25.4,17.6,29.57,SSE,163,10.0,21.0,72,0.00,,OVC200,0.00,248.00,VWS V14.01,2013-02-11 19:38:00,
2013-02-11 13:43:00,25.4,17.6,29.57,South,182,9.0,21.0,72,0.00,,OVC200,0.00,232.00,VWS V14.01,2013-02-11 19:43:00,
2013-02-11 13:48:00,25.3,17.5,29.57,South,175,5.0,21.0,72,0.00,,OVC200,0.00,195.00,VWS V14.01,2013-02-11 19:48:00,
2013-02-11 13:53:00,25.1,17.4,29.58,SE,134,10.0,21.0,72,0.00,,OVC200,0.00,181.00,VWS V14.01,2013-02-11 19:53:00,
2013-02-11 13:58:00,24.8,17.1,29.58,SSE,161,16.0,21.0,72,0.00,,OVC200,0.00,186.00,VWS V14.01,2013-02-11 19:58:00,
2013-02-11 14:00:00,24.7,17.0,29.59,SSE,159,14.0,25.0,72,0.00,,OVC075,0.00,202.00,VWS V15.00,2013-02-11 20:00:00,
2013-02-11 14:03:00,24.7,15.7,29.58,SE,124,25.0,25.0,68,0.00,,OVC200,0.00,185.00,VWS V14.01,2013-02-11 20:03:00,
2013-02-11 14:08:00,24.8,17.1,29.59,SE,137,8.0,17.0,72,0.00,,OVC200,0.00,209.00,VWS V14.01,2013-02-11 20:08:00,
2013-02-11 14:13:00,24.8,17.1,29.59,SE,139,12.0,23.0,72,0.00,,OVC200,0.00,179.00,VWS V14.01,2013-02-11 20:13:00,
2013-02-11 14:18:00,24.8,17.1,29.59,South,173,11.0,23.0,72,0.00,,OVC200,0.00,181.00,VWS V14.01,2013-02-11 20:18:00,
2013-02-11 14:23:00,24.8,17.1,29.60,South,188,9.0,23.0,72,0.00,,OVC200,0.00,181.00,VWS V14.01,2013-02-11 20:23:00,
2013-02-11 14:28:00,24.8,17.1,29.60,SSE,164,13.0,23.0,72,0.00,,OVC200,0.00,200.00,VWS V14.01,2013-02-11 20:28:00,
2013-02-11 14:30:00,24.8,17.1,29.60,SSE,159,7.0,23.0,72,0.00,,OVC075,0.00,188.00,VWS V15.00,2013-02-11 20:30:00,
2013-02-11 14:33:00,24.8,17.1,29.60,SSE,165,7.0,23.0,72,0.00,,OVC200,0.00,199.00,VWS V14.01,2013-02-11 20:33:00,
2013-02-11 14:37:00,25.0,17.3,29.60,South,180,15.0,15.0,72,0.00,,OVC200,0.00,156.00,VWS V14.01,2013-02-11 20:37:00,
2013-02-11 14:42:00,25.0,17.3,29.60,SSE,153,10.0,15.0,72,0.00,,OVC200,0.00,139.00,VWS V14.01,2013-02-11 20:42:00,
2013-02-11 14:48:00,24.8,17.1,29.60,South,176,9.0,15.0,72,0.00,,OVC200,0.00,137.00,VWS V14.01,2013-02-11 20:48:00,
2013-02-11 14:52:00,24.8,17.1,29.61,South,169,10.0,17.0,72,0.00,,OVC200,0.00,156.00,VWS V14.01,2013-02-11 20:52:00,
2013-02-11 14:57:00,24.7,17.0,29.61,SE,138,11.0,18.0,72,0.00,,OVC200,0.00,132.00,VWS V14.01,2013-02-11 20:57:00,
2013-02-11 15:00:00,24.5,16.8,29.62,SSW,202,11.0,19.0,72,0.00,,OVC075,0.00,125.00,VWS V15.00,2013-02-11 21:00:00,
2013-02-11 15:02:00,24.7,17.0,29.61,South,171,10.0,19.0,72,0.00,,OVC200,0.00,120.00,VWS V14.01,2013-02-11 21:02:00,
2013-02-11 15:07:00,24.4,16.7,29.62,ESE,111,10.0,20.0,72,0.00,,OVC200,0.00,132.00,VWS V14.01,2013-02-11 21:07:00,
2013-02-11 15:12:00,24.4,16.7,29.62,South,173,5.0,20.0,72,0.00,,OVC200,0.00,134.00,VWS V14.01,2013-02-11 21:12:00,
2013-02-11 15:17:00,24.4,17.0,29.62,SSE,156,13.0,20.0,73,0.00,,OVC200,0.00,114.00,VWS V14.01,2013-02-11 21:17:00,
2013-02-11 15:22:00,24.4,17.0,29.62,South,174,3.0,20.0,73,0.00,,OVC200,0.00,107.00,VWS V14.01,2013-02-11 21:22:00,
2013-02-11 15:27:00,24.4,17.0,29.62,South,169,4.0,20.0,73,0.00,,OVC200,0.00,109.00,VWS V14.01,2013-02-11 21:27:00,
2013-02-11 15:30:00,24.4,17.3,29.64,South,180,14.0,20.0,74,0.00,,OVC075,0.00,109.00,VWS V15.00,2013-02-11 21:30:00,
2013-02-11 15:32:00,24.4,17.3,29.62,SE,138,9.0,20.0,74,0.00,,OVC200,0.00,100.00,VWS V14.01,2013-02-11 21:32:00,
2013-02-11 15:37:00,24.1,16.4,29.64,South,188,7.0,19.0,72,0.00,,OVC200,0.00,105.00,VWS V14.01,2013-02-11 21:37:00,
2013-02-11 15:42:00,23.9,16.5,29.64,SSE,165,4.0,19.0,73,0.00,,OVC200,0.00,102.00,VWS V14.01,2013-02-11 21:42:00,
2013-02-11 15:47:00,23.9,16.8,29.64,SE,126,10.0,19.0,74,0.00,,OVC200,0.00,90.00,VWS V14.01,2013-02-11 21:47:00,
2013-02-11 15:52:00,23.8,16.7,29.64,SSE,167,8.0,19.0,74,0.00,,OVC200,0.00,76.00,VWS V14.01,2013-02-11 21:52:00,
2013-02-11 15:57:00,23.6,16.2,29.64,ESE,105,14.0,19.0,73,0.00,,OVC200,0.00,76.00,VWS V14.01,2013-02-11 21:57:00,
2013-02-11 16:00:00,23.5,15.8,29.64,South,171,4.0,19.0,72,0.00,,OVC075,0.00,72.00,VWS V15.00,2013-02-11 22:00:00,
2013-02-11 16:02:00,23.5,16.1,29.64,South,184,14.0,19.0,73,0.00,,OVC200,0.00,74.00,VWS V14.01,2013-02-11 22:02:00,
2013-02-11 16:07:00,23.3,15.6,29.64,SSE,165,5.0,19.0,72,0.00,,OVC200,0.00,77.00,VWS V14.01,2013-02-11 22:07:00,
2013-02-11 16:12:00,23.5,16.1,29.64,SSE,159,10.0,19.0,73,0.00,,OVC200,0.00,65.00,VWS V14.01,2013-02-11 22:12:00,
2013-02-11 16:17:00,23.3,15.6,29.64,SE,128,8.0,19.0,72,0.00,,OVC200,0.00,56.00,VWS V14.01,2013-02-11 22:17:00,
2013-02-11 16:22:00,23.2,15.5,29.65,SSE,150,7.0,19.0,72,0.00,,OVC200,0.00,54.00,VWS V14.01,2013-02-11 22:22:00,
2013-02-11 16:27:00,23.0,15.3,29.65,SSE,166,9.0,19.0,72,0.00,,OVC200,0.00,51.00,VWS V14.01,2013-02-11 22:27:00,
2013-02-11 16:30:00,22.9,15.2,29.65,South,189,9.0,19.0,72,0.00,,OVC075,0.00,51.00,VWS V15.00,2013-02-11 22:30:00,
2013-02-11 16:32:00,22.9,15.2,29.65,East,100,6.0,19.0,72,0.00,,OVC200,0.00,54.00,VWS V14.01,2013-02-11 22:32:00,
2013-02-11 16:37:00,22.9,15.6,29.65,SE,134,12.0,14.0,73,0.00,,OVC200,0.00,44.00,VWS V14.01,2013-02-11 22:37:00,
2013-02-11 16:42:00,22.7,15.4,29.65,SSE,147,5.0,14.0,73,0.00,,OVC200,0.00,40.00,VWS V14.01,2013-02-11 22:42:00,
2013-02-11 16:47:00,22.7,15.4,29.65,South,176,7.0,14.0,73,0.00,,OVC200,0.00,35.00,VWS V14.01,2013-02-11 22:47:00,
2013-02-11 16:52:00,22.5,15.2,29.67,SSE,162,6.0,14.0,73,0.00,,OVC200,0.00,26.00,VWS V14.01,2013-02-11 22:52:00,
2013-02-11 16:57:00,22.2,14.6,29.67,South,178,9.0,19.0,72,0.00,,OVC200,0.00,18.00,VWS V14.01,2013-02-11 22:57:00,
2013-02-11 17:00:00,22.1,14.5,29.67,SSE,157,12.0,19.0,72,0.00,,OVC075,0.00,19.00,VWS V15.00,2013-02-11 23:00:00,
2013-02-11 17:02:00,22.1,14.5,29.67,South,191,12.0,19.0,72,0.00,,OVC200,0.00,19.00,VWS V14.01,2013-02-11 23:02:00,
2013-02-11 17:07:00,21.9,14.3,29.67,South,175,7.0,17.0,72,0.00,,OVC200,0.00,18.00,VWS V14.01,2013-02-11 23:07:00,
2013-02-11 17:12:00,21.8,13.9,29.67,SSE,148,12.0,19.0,71,0.00,,OVC200,0.00,14.00,VWS V14.01,2013-02-11 23:12:00,
2013-02-11 17:17:00,21.8,14.2,29.67,SE,138,11.0,19.0,72,0.00,,OVC200,0.00,12.00,VWS V14.01,2013-02-11 23:17:00,
2013-02-11 17:22:00,21.6,14.0,29.67,South,181,11.0,19.0,72,0.00,,OVC200,0.00,7.00,VWS V14.01,2013-02-11 23:22:00,
2013-02-11 17:27:00,21.6,14.0,29.67,SSE,157,7.0,19.0,72,0.00,,OVC200,0.00,5.00,VWS V14.01,2013-02-11 23:27:00,
2013-02-11 17:30:00,21.4,13.8,29.68,South,180,5.0,19.0,72,0.00,,OVC075,0.00,0.00,VWS V15.00,2013-02-11 23:30:00,
2013-02-11 17:32:00,21.4,13.8,29.67,SSE,163,10.0,19.0,72,0.00,,OVC200,0.00,0.00,VWS V14.01,2013-02-11 23:32:00,
2013-02-11 17:37:00,21.3,13.7,29.68,SSW,195,7.0,14.0,72,0.00,,OVC200,0.00,0.00,VWS V14.01,2013-02-11 23:37:00,
2013-02-11 17:42:00,21.3,13.7,29.68,SSE,156,9.0,14.0,72,0.00,,OVC200,0.00,0.00,VWS V14.01,2013-02-11 23:42:00,
2013-02-11 17:47:00,21.3,13.7,29.68,SW,236,9.0,16.0,72,0.00,,OVC200,0.00,0.00,VWS V14.01,2013-02-11 23:47:00,
2013-02-11 17:52:00,21.3,13.7,29.69,SSE,157,10.0,16.0,72,0.00,,OVC200,0.00,0.00,VWS V14.01,2013-02-11 23:52:00,
2013-02-11 17:57:00,21.1,13.5,29.69,SE,146,7.0,18.0,72,0.00,,OVC200,0.00,0.00,VWS V14.01,2013-02-11 23:57:00,
2013-02-11 18:00:00,21.0,13.4,29.69,South,175,10.0,18.0,72,0.00,,OVC075,0.00,0.00,VWS V15.00,2013-02-12 00:00:00,
2013-02-11 18:02:00,21.0,13.4,29.69,South,171,6.0,18.0,72,0.00,,OVC200,0.00,0.00,VWS V14.01,2013-02-12 00:02:00,
2013-02-11 18:07:00,20.8,12.9,29.69,SSE,151,9.0,15.0,71,0.00,,OVC200,0.00,0.00,VWS V14.01,2013-02-12 00:07:00,
2013-02-11 18:12:00,20.6,12.1,29.69,South,169,10.0,15.0,69,0.00,,OVC200,0.00,0.00,VWS V14.01,2013-02-12 00:12:00,
2013-02-11 18:17:00,20.5,12.0,29.69,South,180,13.0,17.0,69,0.00,,OVC200,0.00,0.00,VWS V14.01,2013-02-12 00:17:00,
2013-02-11 18:22:00,20.5,12.0,29.70,South,178,12.0,17.0,69,0.00,,OVC200,0.00,0.00,VWS V14.01,2013-02-12 00:22:00,
2013-02-11 18:27:00,20.3,11.8,29.70,SE,139,12.0,17.0,69,0.00,,OVC200,0.00,0.00,VWS V14.01,2013-02-12 00:27:00,
2013-02-11 18:30:00,20.3,11.8,29.70,SSE,150,16.0,19.0,69,0.00,,OVC075,0.00,0.00,VWS V15.00,2013-02-12 00:30:00,
2013-02-11 18:32:00,20.3,11.4,29.70,SE,144,17.0,17.0,68,0.00,,OVC200,0.00,0.00,VWS V14.01,2013-02-12 00:32:00,
2013-02-11 18:37:00,20.3,11.8,29.70,South,173,11.0,19.0,69,0.00,,OVC200,0.00,0.00,VWS V14.01,2013-02-12 00:37:00,
2013-02-11 18:42:00,20.2,11.7,29.70,South,177,8.0,19.0,69,0.00,,OVC200,0.00,0.00,VWS V14.01,2013-02-12 00:42:00,
2013-02-11 18:47:00,20.0,11.5,29.70,SSE,152,7.0,19.0,69,0.00,,OVC200,0.00,0.00,VWS V14.01,2013-02-12 00:47:00,
2013-02-11 18:52:00,20.0,11.5,29.70,South,172,10.0,19.0,69,0.00,,OVC200,0.00,0.00,VWS V14.01,2013-02-12 00:52:00,
2013-02-11 18:57:00,20.0,11.5,29.70,SSE,149,9.0,19.0,69,0.00,,OVC200,0.00,0.00,VWS V14.01,2013-02-12 00:57:00,
2013-02-11 19:00:00,19.9,11.7,29.71,SSE,148,7.0,19.0,70,0.00,,OVC075,0.00,0.00,VWS V15.00,2013-02-12 01:00:00,
2013-02-11 19:02:00,20.0,11.5,29.70,SE,146,5.0,19.0,69,0.00,,OVC200,0.00,0.00,VWS V14.01,2013-02-12 01:02:00,
2013-02-11 19:07:00,19.9,11.7,29.71,SSE,155,11.0,17.0,70,0.00,,OVC200,0.00,0.00,VWS V14.01,2013-02-12 01:07:00,
2013-02-11 19:12:00,19.9,11.7,29.71,South,170,5.0,17.0,70,0.00,,OVC200,0.00,0.00,VWS V14.01,2013-02-12 01:12:00,
2013-02-11 19:17:00,19.9,12.0,29.71,South,169,13.0,17.0,71,0.00,,OVC200,0.00,0.00,VWS V14.01,2013-02-12 01:17:00,
2013-02-11 19:22:00,19.9,11.7,29.71,SSE,155,4.0,17.0,70,0.00,,OVC200,0.00,0.00,VWS V14.01,2013-02-12 01:22:00,
2013-02-11 19:27:00,19.9,12.0,29.71,SSE,155,7.0,17.0,71,0.00,,OVC200,0.00,0.00,VWS V14.01,2013-02-12 01:27:00,
2013-02-11 19:30:00,19.9,12.0,29.71,SSE,162,4.0,17.0,71,0.00,,OVC075,0.00,0.00,VWS V15.00,2013-02-12 01:30:00,
2013-02-11 19:32:00,19.9,12.0,29.71,SE,139,4.0,17.0,71,0.00,,OVC200,0.00,0.00,VWS V14.01,2013-02-12 01:32:00,
2013-02-11 19:37:00,19.9,12.0,29.71,South,175,5.0,7.0,71,0.00,,OVC200,0.00,0.00,VWS V14.01,2013-02-12 01:37:00,
2013-02-11 19:42:00,19.9,12.0,29.71,SSE,159,5.0,10.0,71,0.00,,OVC200,0.00,0.00,VWS V14.01,2013-02-12 01:42:00,
2013-02-11 19:47:00,19.9,12.3,29.71,SE,136,9.0,12.0,72,0.00,,OVC200,0.00,0.00,VWS V14.01,2013-02-12 01:47:00,
2013-02-11 19:52:00,19.9,12.3,29.71,SSE,158,5.0,12.0,72,0.00,,OVC200,0.00,0.00,VWS V14.01,2013-02-12 01:52:00,
2013-02-11 19:57:00,20.0,12.4,29.71,SSE,159,3.0,12.0,72,0.00,,OVC200,0.00,0.00,VWS V14.01,2013-02-12 01:57:00,
2013-02-11 20:00:00,20.0,12.4,29.72,SE,130,4.0,12.0,72,0.00,,OVC075,0.00,0.00,VWS V15.00,2013-02-12 02:00:00,
2013-02-11 20:02:00,20.0,12.4,29.71,SSE,155,3.0,12.0,72,0.00,,OVC200,0.00,0.00,VWS V14.01,2013-02-12 02:02:00,
2013-02-11 20:07:00,20.0,12.4,29.72,South,178,5.0,6.0,72,0.00,,OVC200,0.00,0.00,VWS V14.01,2013-02-12 02:07:00,
2013-02-11 20:12:00,20.0,12.4,29.72,SSE,147,2.0,7.0,72,0.00,,OVC200,0.00,0.00,VWS V14.01,2013-02-12 02:12:00,
2013-02-11 20:17:00,20.0,12.8,29.72,SSE,155,4.0,7.0,73,0.00,,OVC200,0.00,0.00,VWS V14.01,2013-02-12 02:17:00,
2013-02-11 20:22:00,20.0,12.8,29.72,SE,135,6.0,7.0,73,0.00,,OVC200,0.00,0.00,VWS V14.01,2013-02-12 02:22:00,
2013-02-11 20:27:00,20.0,12.8,29.72,SE,140,2.0,12.0,73,0.00,,OVC200,0.00,0.00,VWS V14.01,2013-02-12 02:27:00,
2013-02-11 20:30:00,20.2,12.9,29.72,SE,140,4.0,12.0,73,0.00,,OVC075,0.00,0.00,VWS V15.00,2013-02-12 02:30:00,
2013-02-11 20:32:00,20.2,12.9,29.72,SE,144,4.0,12.0,73,0.00,,OVC200,0.00,0.00,VWS V14.01,2013-02-12 02:32:00,
2013-02-11 20:37:00,20.2,12.9,29.72,SE,127,2.0,9.0,73,0.00,,OVC200,0.00,0.00,VWS V14.01,2013-02-12 02:37:00,
2013-02-11 20:42:00,20.2,13.2,29.72,SE,138,6.0,9.0,74,0.00,,OVC200,0.00,0.00,VWS V14.01,2013-02-12 02:42:00,
2013-02-11 20:47:00,20.3,13.4,29.72,SSE,149,9.0,12.0,74,0.00,,OVC200,0.00,0.00,VWS V14.01,2013-02-12 02:47:00,
2013-02-11 20:52:00,20.3,13.4,29.72,SE,128,4.0,12.0,74,0.00,,OVC200,0.00,0.00,VWS V14.01,2013-02-12 02:52:00,
2013-02-11 20:57:00,20.3,13.4,29.72,SSE,148,6.0,12.0,74,0.00,,OVC200,0.00,0.00,VWS V14.01,2013-02-12 02:57:00,
2013-02-11 21:00:00,20.3,13.4,29.72,South,172,3.0,12.0,74,0.00,,OVC075,0.00,0.00,VWS V15.00,2013-02-12 03:00:00,
2013-02-11 21:02:00,20.3,13.4,29.72,SSE,148,3.0,12.0,74,0.00,,OVC200,0.00,0.00,VWS V14.01,2013-02-12 03:02:00,
2013-02-11 21:07:00,20.5,13.5,29.72,SE,124,7.0,14.0,74,0.00,,OVC200,0.00,0.00,VWS V14.01,2013-02-12 03:07:00,
2013-02-11 21:12:00,20.5,13.5,29.72,SW,230,3.0,14.0,74,0.00,,OVC200,0.00,0.00,VWS V14.01,2013-02-12 03:12:00,
2013-02-11 21:17:00,20.5,13.5,29.72,SE,140,5.0,14.0,74,0.00,,OVC200,0.00,0.00,VWS V14.01,2013-02-12 03:17:00,
2013-02-11 21:22:00,20.5,13.5,29.74,SE,132,11.0,14.0,74,0.00,,OVC200,0.00,0.00,VWS V14.01,2013-02-12 03:22:00,
2013-02-11 21:27:00,20.5,13.5,29.74,SSE,164,5.0,14.0,74,0.00,,OVC200,0.00,0.00,VWS V14.01,2013-02-12 03:27:00,
2013-02-11 21:30:00,20.5,13.6,29.74,SSE,156,8.0,14.0,74,0.00,,OVC075,0.00,0.00,VWS V15.00,2013-02-12 03:30:00,
2013-02-11 21:32:00,20.5,13.5,29.74,SE,125,7.0,14.0,74,0.00,,OVC200,0.00,0.00,VWS V14.01,2013-02-12 03:32:00,
2013-02-11 21:37:00,20.5,13.5,29.74,SW,215,4.0,11.0,74,0.00,,OVC200,0.00,0.00,VWS V14.01,2013-02-12 03:37:00,
2013-02-11 21:42:00,20.5,13.5,29.74,SSE,157,4.0,11.0,74,0.00,,OVC200,0.00,0.00,VWS V14.01,2013-02-12 03:42:00,
2013-02-11 21:47:00,20.5,13.5,29.74,SE,144,2.0,11.0,74,0.00,,OVC200,0.00,0.00,VWS V14.01,2013-02-12 03:47:00,
2013-02-11 21:52:00,20.3,13.4,29.74,South,173,5.0,11.0,74,0.00,,OVC200,0.00,0.00,VWS V14.01,2013-02-12 03:52:00,
2013-02-11 21:57:00,20.2,13.6,29.74,SSE,167,3.0,11.0,75,0.00,,OVC200,0.00,0.00,VWS V14.01,2013-02-12 03:57:00,
2013-02-11 22:00:00,19.9,13.3,29.75,South,178,4.0,11.0,75,0.00,,OVC075,0.00,0.00,VWS V15.00,2013-02-12 04:00:00,
2013-02-11 22:02:00,19.9,13.3,29.74,SSW,193,6.0,11.0,75,0.00,,OVC200,0.00,0.00,VWS V14.01,2013-02-12 04:02:00,
2013-02-11 22:07:00,19.7,13.1,29.75,South,176,5.0,8.0,75,0.00,,OVC200,0.00,0.00,VWS V14.01,2013-02-12 04:07:00,
2013-02-11 22:12:00,19.4,12.8,29.75,South,178,4.0,8.0,75,0.00,,OVC200,0.00,0.00,VWS V14.01,2013-02-12 04:12:00,
2013-02-11 22:17:00,19.1,12.5,29.75,South,173,3.0,8.0,75,0.00,,OVC200,0.00,0.00,VWS V14.01,2013-02-12 04:17:00,
2013-02-11 22:22:00,18.8,12.5,29.75,SSE,167,5.0,8.0,76,0.00,,OVC200,0.00,0.00,VWS V14.01,2013-02-12 04:22:00,
2013-02-11 22:27:00,18.4,12.1,29.75,SE,140,4.0,8.0,76,0.00,,OVC200,0.00,0.00,VWS V14.01,2013-02-12 04:27:00,
2013-02-11 22:30:00,18.0,11.7,29.75,SE,144,3.0,8.0,76,0.00,,OVC075,0.00,0.00,VWS V15.00,2013-02-12 04:30:00,
2013-02-11 22:32:00,18.1,11.8,29.75,SE,140,2.0,8.0,76,0.00,,OVC200,0.00,0.00,VWS V14.01,2013-02-12 04:32:00,
2013-02-11 22:37:00,17.8,11.5,29.75,SSE,147,4.0,6.0,76,0.00,,OVC200,0.00,0.00,VWS V14.01,2013-02-12 04:37:00,
2013-02-11 22:42:00,17.7,11.4,29.75,SE,146,3.0,6.0,76,0.00,,OVC200,0.00,0.00,VWS V14.01,2013-02-12 04:42:00,
2013-02-11 22:47:00,17.5,11.5,29.75,SE,142,4.0,6.0,77,0.00,,OVC200,0.00,0.00,VWS V14.01,2013-02-12 04:47:00,
2013-02-11 22:52:00,17.3,11.3,29.75,SE,142,5.0,6.0,77,0.00,,OVC200,0.00,0.00,VWS V14.01,2013-02-12 04:52:00,
2013-02-11 22:57:00,17.2,11.2,29.75,SE,144,3.0,6.0,77,0.00,,OVC200,0.00,0.00,VWS V14.01,2013-02-12 04:57:00,
2013-02-11 23:00:00,17.0,11.1,29.75,SE,144,2.0,6.0,77,0.00,,OVC200,0.00,0.00,VWS V14.01,2013-02-12 05:00:00,
2013-02-11 23:05:00,16.9,10.9,29.76,SE,141,4.0,4.0,77,0.00,,OVC200,0.00,0.00,VWS V14.01,2013-02-12 05:05:00,
2013-02-11 23:10:00,16.9,10.9,29.76,SE,135,3.0,6.0,77,0.00,,OVC200,0.00,0.00,VWS V14.01,2013-02-12 05:10:00,
2013-02-11 23:15:00,16.7,10.8,29.76,SE,128,3.0,6.0,77,0.00,,OVC200,0.00,0.00,VWS V14.01,2013-02-12 05:15:00,
2013-02-11 23:16:00,16.5,10.6,29.76,SE,130,3.0,6.0,77,0.00,,OVC200,0.00,0.00,VWS V14.01,2013-02-12 05:16:00,
2013-02-11 23:21:00,16.5,10.6,29.75,SE,142,5.0,6.0,77,0.00,,OVC200,0.00,0.00,VWS V14.01,2013-02-12 05:21:00,
2013-02-11 23:26:00,16.5,10.6,29.75,SE,146,3.0,6.0,77,0.00,,OVC200,0.00,0.00,VWS V14.01,2013-02-12 05:26:00,
2013-02-11 23:30:00,16.4,10.5,29.76,SE,140,2.0,6.0,77,0.00,,OVC075,0.00,0.00,VWS V15.00,2013-02-12 05:30:00,
2013-02-11 23:31:00,16.4,10.5,29.75,SSE,148,3.0,6.0,77,0.00,,OVC200,0.00,0.00,VWS V14.01,2013-02-12 05:31:00,
2013-02-11 23:36:00,16.2,10.3,29.76,SE,140,3.0,4.0,77,0.00,,OVC200,0.00,0.00,VWS V14.01,2013-02-12 05:36:00,
2013-02-11 23:41:00,16.1,10.2,29.76,SE,140,2.0,5.0,77,0.00,,OVC200,0.00,0.00,VWS V14.01,2013-02-12 05:41:00,
2013-02-11 23:46:00,16.1,10.2,29.76,SE,132,2.0,6.0,77,0.00,,OVC200,0.00,0.00,VWS V14.01,2013-02-12 05:46:00,
2013-02-11 23:51:00,16.1,10.2,29.76,SE,131,2.0,6.0,77,0.00,,OVC200,0.00,0.00,VWS V14.01,2013-02-12 05:51:00,
2013-02-11 23:56:00,15.9,10.0,29.76,SE,132,4.0,6.0,77,0.00,,OVC200,0.00,0.00,VWS V14.01,2013-02-12 05:56:00,